Time,TemperatureF,DewpointF,PressureIn,WindDirection,WindDirectionDegrees,WindSpeedMPH,WindSpeedGustMPH,Humidity,HourlyPrecipIn,Conditions,Clouds,dailyrainin,SoftwareType,DateUTC
2013-02-16 01:30:00,25.0,-99.9,-100.00,North,-999,-999.0,-999.0,-999,-99.99,,,-99.99,,2013-02-16 06:30:00,
2013-02-16 02:02:00,25.0,-99.9,-100.00,North,-999,-999.0,-999.0,-999,-99.99,,,-99.99,,2013-02-16 07:02:00,
2013-02-16 02:22:00,25.0,-99.9,-100.00,North,-999,-999.0,-999.0,-999,-99.99,,,-99.99,,2013-02-16 07:22:00,
2013-02-16 04:02:00,24.0,-99.9,-100.00,North,-999,-999.0,-999.0,-999,-99.99,,,-99.99,,2013-02-16 09:02:00,
2013-02-16 04:12:00,24.0,-99.9,-100.00,North,-999,-999.0,-999.0,-999,-99.99,,,-99.99,,2013-02-16 09:12:00,
2013-02-16 04:22:00,24.0,-99.9,-100.00,North,-999,-999.0,-999.0,-999,-99.99,,,-99.99,,2013-02-16 09:22:00,
2013-02-16 04:31:00,23.0,-99.9,-100.00,North,-999,-999.0,-999.0,-999,-99.99,,,-99.99,,2013-02-16 09:31:00,
2013-02-16 04:32:00,24.0,-99.9,-100.00,North,-999,-999.0,-999.0,-999,-99.99,,,-99.99,,2013-02-16 09:32:00,
2013-02-16 04:43:00,24.0,-99.9,-100.00,North,-999,-999.0,-999.0,-999,-99.99,,,-99.99,,2013-02-16 09:43:00,
2013-02-16 04:52:00,23.0,-99.9,-100.00,North,-999,-999.0,-999.0,-999,0.00,,,-99.99,,2013-02-16 09:52:00,
2013-02-16 05:02:00,23.0,-99.9,-100.00,North,-999,-999.0,-999.0,-999,-99.99,,,-99.99,,2013-02-16 10:02:00,
2013-02-16 05:11:00,23.0,-99.9,-100.00,North,-999,-999.0,-999.0,-999,-99.99,,,-99.99,,2013-02-16 10:11:00,
2013-02-16 05:22:00,23.0,-99.9,-100.00,North,-999,-999.0,-999.0,-999,-99.99,,,-99.99,,2013-02-16 10:22:00,
2013-02-16 05:30:00,23.0,-99.9,-100.00,North,-999,-999.0,-999.0,-999,0.00,,,-99.99,,2013-02-16 10:30:00,
2013-02-16 06:02:00,23.0,-99.9,-100.00,North,-999,-999.0,-999.0,-999,0.00,,,-99.99,,2013-02-16 11:02:00,
2013-02-16 06:12:00,23.0,-99.9,-100.00,North,-999,-999.0,-999.0,-999,0.00,,,-99.99,,2013-02-16 11:12:00,
2013-02-16 06:22:00,23.0,-99.9,-100.00,North,-999,-999.0,-999.0,-999,0.00,,,-99.99,,2013-02-16 11:22:00,
2013-02-16 08:30:00,20.0,-99.9,-100.00,North,-999,-999.0,-999.0,-999,-99.99,,,-99.99,,2013-02-16 13:30:00,
2013-02-16 08:52:00,20.0,-99.9,-100.00,North,-999,-999.0,-999.0,-999,-99.99,,,-99.99,,2013-02-16 13:52:00,
2013-02-16 09:01:00,20.0,-99.9,-100.00,North,-999,-999.0,-999.0,-999,-99.99,,,-99.99,,2013-02-16 14:01:00,
2013-02-16 09:11:00,20.0,-99.9,-100.00,North,-999,-999.0,-999.0,-999,-99.99,,,-99.99,,2013-02-16 14:11:00,
2013-02-16 09:22:00,20.0,-99.9,-100.00,North,-999,-999.0,-999.0,-999,-99.99,,,-99.99,,2013-02-16 14:22:00,
2013-02-16 09:30:00,20.0,-99.9,-100.00,North,-999,-999.0,-999.0,-999,0.00,,,-99.99,,2013-02-16 14:30:00,
2013-02-16 10:02:00,20.0,-99.9,-100.00,North,-999,-999.0,-999.0,-999,0.00,,,-99.99,,2013-02-16 15:02:00,
2013-02-16 10:11:00,20.0,-99.9,-100.00,North,-999,-999.0,-999.0,-999,0.00,,,-99.99,,2013-02-16 15:11:00,
2013-02-16 10:22:00,20.0,-99.9,-100.00,North,-999,-999.0,-999.0,-999,0.00,,,-99.99,,2013-02-16 15:22:00,
2013-02-16 12:31:00,23.0,-99.9,-100.00,North,-999,-999.0,-999.0,-999,0.03,,,-99.99,,2013-02-16 17:31:00,
2013-02-16 12:52:00,23.0,-99.9,-100.00,North,-999,-999.0,-999.0,-999,-99.99,,,-99.99,,2013-02-16 17:52:00,
2013-02-16 13:02:00,23.0,-99.9,-100.00,North,-999,-999.0,-999.0,-999,0.03,,,-99.99,,2013-02-16 18:02:00,
2013-02-16 13:11:00,23.0,-99.9,-100.00,North,-999,-999.0,-999.0,-999,0.03,,,-99.99,,2013-02-16 18:11:00,
2013-02-16 13:22:00,23.0,-99.9,-100.00,North,-999,-999.0,-999.0,-999,0.03,,,-99.99,,2013-02-16 18:22:00,
2013-02-16 16:30:00,20.0,-99.9,-100.00,North,-999,-999.0,-999.0,-999,-99.99,,,0.00,,2013-02-16 21:30:00,
2013-02-16 16:52:00,20.0,-99.9,-100.00,North,-999,-999.0,-999.0,-999,-99.99,,,0.00,,2013-02-16 21:52:00,
2013-02-16 17:02:00,20.0,-99.9,-100.00,North,-999,-999.0,-999.0,-999,-99.99,,,0.00,,2013-02-16 22:02:00,
2013-02-16 17:11:00,20.0,-99.9,-100.00,North,-999,-999.0,-999.0,-999,-99.99,,,0.00,,2013-02-16 22:11:00,
2013-02-16 17:22:00,20.0,-99.9,-100.00,North,-999,-999.0,-999.0,-999,-99.99,,,0.00,,2013-02-16 22:22:00,
2013-02-16 17:30:00,19.0,-99.9,-100.00,North,-999,-999.0,-999.0,-999,0.00,,,-99.99,,2013-02-16 22:30:00,
2013-02-16 18:03:00,19.0,-99.9,-100.00,North,-999,-999.0,-999.0,-999,0.00,,,-99.99,,2013-02-16 23:03:00,
2013-02-16 18:11:00,19.0,-99.9,-100.00,North,-999,-999.0,-999.0,-999,0.00,,,-99.99,,2013-02-16 23:11:00,
2013-02-16 18:22:00,19.0,-99.9,-100.00,North,-999,-999.0,-999.0,-999,0.00,,,-99.99,,2013-02-16 23:22:00,
2013-02-16 18:31:00,17.0,-99.9,-100.00,North,-999,-999.0,-999.0,-999,0.00,,,-99.99,,2013-02-16 23:31:00,
2013-02-16 19:02:00,17.0,-99.9,-100.00,North,-999,-999.0,-999.0,-999,0.00,,,-99.99,,2013-02-17 00:02:00,
2013-02-16 19:12:00,17.0,-99.9,-100.00,North,-999,-999.0,-999.0,-999,0.00,,,-99.99,,2013-02-17 00:12:00,
2013-02-16 19:22:00,17.0,-99.9,-100.00,North,-999,-999.0,-999.0,-999,0.00,,,-99.99,,2013-02-17 00:22:00,
2013-02-16 19:30:00,15.0,-99.9,-100.00,North,-999,-999.0,-999.0,-999,0.00,,,-99.99,,2013-02-17 00:30:00,
2013-02-16 20:02:00,15.0,-99.9,-100.00,North,-999,-999.0,-999.0,-999,0.00,,,-99.99,,2013-02-17 01:02:00,
2013-02-16 20:11:00,15.0,-99.9,-100.00,North,-999,-999.0,-999.0,-999,0.00,,,-99.99,,2013-02-17 01:11:00,
2013-02-16 20:22:00,15.0,-99.9,-100.00,North,-999,-999.0,-999.0,-999,0.00,,,-99.99,,2013-02-17 01:22:00,
2013-02-16 21:30:00,14.0,-99.9,-100.00,North,-999,-999.0,-999.0,-999,-99.99,,,0.00,,2013-02-17 02:30:00,
2013-02-16 22:02:00,14.0,-99.9,-100.00,North,-999,-999.0,-999.0,-999,-99.99,,,0.00,,2013-02-17 03:02:00,
2013-02-16 22:11:00,14.0,-99.9,-100.00,North,-999,-999.0,-999.0,-999,-99.99,,,0.00,,2013-02-17 03:11:00,
2013-02-16 22:22:00,14.0,-99.9,-100.00,North,-999,-999.0,-999.0,-999,-99.99,,,0.00,,2013-02-17 03:22:00,
2013-02-16 22:31:00,13.0,-99.9,-100.00,North,-999,-999.0,-999.0,-999,22.40,,,-99.99,,2013-02-17 03:31:00,
2013-02-16 23:02:00,13.0,-99.9,-100.00,North,-999,-999.0,-999.0,-999,22.40,,,-99.99,,2013-02-17 04:02:00,
2013-02-16 23:11:00,13.0,-99.9,-100.00,North,-999,-999.0,-999.0,-999,22.40,,,-99.99,,2013-02-17 04:11:00,
2013-02-16 23:22:00,13.0,-99.9,-100.00,North,-999,-999.0,-999.0,-999,22.40,,,-99.99,,2013-02-17 04:22:00,